Zurück zum Katalog

STARLINK-31846

AktivKommunikationVLEO
NORAD 60126·PAYLOAD·🇺🇸 United States

Gestartet Jun 24, 2024 von Vandenberg Space Force Base

Loading…

Nächste Überflüge (nächste 24 Stunden)

TLE

AktuellSource: CelesTrak SupGP

Epoche: Sep 15, 2026, 03:07 UTC

1 60126C 24118P   26258.13034722 -.00052809  00000+0 -16982-2 0  2587
2 60126  53.1589 225.5720 0001434  89.6339  57.9358 15.31727725    19

Verfolge STARLINK-31846 in Echtzeit mit AllMySat

Download on the App Store